Location: Leimbach
(47.5611°N, 9.1881°E)
Time: 01:13:50
(UTC+00:00)

Daily predictions for brighter satellites

Satellite Brightness Start Highest point End
(mag) Time Altitude Azimuth Time Altitude Azimuth Time Altitude Azimuth
STARLINK-1268 3.9 00:04:28 34° E 00:04:28 34° E 00:06:35 10° ENE
STARLINK-1301 3.7 00:03:56 47° SE 00:03:57 47° SE 00:07:41 10° ENE
STARLINK-1303 3.7 00:05:53 46° SE 00:05:53 46° SE 00:09:27 10° ENE
STARLINK-66 2.9 00:07:08 71° ESE 00:07:08 71° ESE 00:10:12 10° ENE
Cosmos 1400 Rocket 4.0 00:03:06 10° N 00:07:01 39° ENE 00:09:10 22° SE
Cosmos 1570 Rocket 4.0 00:04:53 37° S 00:07:02 77° ESE 00:12:19 10° NNE
Cosmos 1709 Rocket 3.9 00:05:05 32° S 00:08:07 83° E 00:14:21 10° N
Cosmos 1763 Rocket 3.6 00:05:57 33° SW 00:08:12 67° WNW 00:13:16 10° NNE
Cosmos 2227 Rocket 3.1 00:03:33 10° NW 00:08:35 34° WSW 00:10:10 29° SW
STARLINK-1316 3.6 00:09:23 41° ESE 00:09:23 41° ESE 00:11:47 10° ENE
STARLINK-1312 3.6 00:09:13 49° SSE 00:09:18 49° SE 00:12:57 10° ENE
STARLINK-1257 3.5 00:10:14 43° ESE 00:10:14 43° ESE 00:12:41 10° ENE
STARLINK-1256 3.5 00:11:11 43° ESE 00:11:11 43° ESE 00:13:39 10° ENE
STARLINK-58 4.1 00:11:42 31° ESE 00:11:42 31° ESE 00:13:54 10° ENE
STARLINK-1213 3.4 00:12:02 45° ESE 00:12:02 45° ESE 00:14:32 10° ENE
STARLINK-1263 3.4 00:12:53 46° ESE 00:12:53 46° ESE 00:15:26 10° ENE
Cosmos 2084 Rocket 3.4 00:08:36 10° NW 00:13:04 74° SW 00:14:58 34° SSE
STARLINK-1259 3.3 00:13:47 47° ESE 00:13:47 47° ESE 00:16:23 10° ENE
STARLINK-1265 3.3 00:14:10 49° ESE 00:14:10 49° ESE 00:16:48 10° ENE
STARLINK-1285 3.3 00:14:38 49° ESE 00:14:38 49° ESE 00:17:15 10° ENE
Cosmos 2298 Rocket 4.4 00:10:40 10° NNW 00:15:57 63° ENE 00:19:50 18° SE
STARLINK-1296 3.2 00:16:22 52° ESE 00:16:22 52° ESE 00:19:04 10° ENE
SL-16 R/B 3.4 00:10:28 10° SE 00:16:17 46° ENE 00:22:08 10° N
STARLINK-1260 3.1 00:17:14 54° ESE 00:17:14 54° ESE 00:19:58 10° ENE
Cosmos 1758 Rocket 3.5 00:15:28 42° SSW 00:16:56 87° W 00:21:24 10° N
STARLINK-1318 3.1 00:18:06 55° ESE 00:18:06 55° ESE 00:20:52 10° ENE
STARLINK-75 2.8 00:18:02 76° SSW 00:18:12 80° SSE 00:21:27 10° ENE
STARLINK-1275 3.0 00:18:58 57° ESE 00:18:58 57° ESE 00:21:48 10° ENE
STARLINK-48 4.3 00:19:05 33° SE 00:19:05 33° SE 00:22:33 10° ENE
STARLINK-1309 3.0 00:19:50 58° ESE 00:19:50 58° ESE 00:22:40 10° ENE
STARLINK-1282 3.0 00:20:42 60° ESE 00:20:42 60° ESE 00:23:34 10° ENE
STARLINK-1283 3.5 00:20:03 46° SSW 00:21:05 66° SSE 00:25:10 10° ENE
IRAS Rocket 4.2 00:18:06 25° SSE 00:21:26 84° ENE 00:26:59 10° NNW
STARLINK-1313 2.7 00:21:38 71° SE 00:21:38 71° SE 00:24:42 10° ENE
STARLINK-80 3.3 00:21:07 53° SSW 00:21:45 64° SE 00:25:31 10° ENE
STARLINK-1279 2.7 00:22:33 73° SE 00:22:33 73° SE 00:25:38 10° ENE
CZ-4 R/B 4.2 00:18:13 10° N 00:22:50 55° WNW 00:24:50 31° SW
STARLINK-1298 2.8 00:23:16 65° SE 00:23:16 65° SE 00:26:14 10° ENE
STARLINK-1293 2.8 00:24:09 67° SE 00:24:09 67° SE 00:27:11 10° ENE
SL-16 R/B 3.7 00:22:44 17° SE 00:25:44 25° ESE 00:30:17 10° NE
STARLINK-1255 2.7 00:25:54 69° SE 00:25:54 69° SE 00:28:59 10° ENE
Cosmos 2208 Rocket 4.0 00:23:37 34° SSW 00:26:02 90° WNW 00:31:27 10° NNE
STARLINK-22 2.8 00:26:16 71° S 00:26:28 75° SSE 00:29:41 10° ENE
STARLINK-1297 3.2 00:26:32 56° SSW 00:27:02 64° SSE 00:30:37 10° ENE
STARLINK 1040 4.0 00:26:21 26° NW 00:27:09 34° NNW 00:29:32 10° NE
STARLINK-1444 4.3 00:25:54 10° NW 00:26:52 21° NW 00:26:52 21° NW
STARLINK-1311 2.5 00:28:27 85° SSE 00:28:27 85° SSE 00:31:24 10° ENE
Cosmos 2285 Rocket 4.1 00:22:24 10° NNW 00:28:39 59° WSW 00:31:55 28° S
CZ-2D R/B 3.1 00:27:08 10° NNE 00:31:57 36° E 00:35:02 19° SSE
MOZ.5/SAFIR/RUBIN 5/SL-8 4.1 00:29:15 21° SSE 00:32:13 61° ENE 00:36:49 10° N
USA 81 4.2 00:30:17 32° SSW 00:32:40 63° W 00:37:56 10° N
Cosmos-2242 3.0 00:28:46 10° NNW 00:32:59 63° W 00:34:23 39° SSW
Meteor 2-10 Rocket 4.0 00:28:35 10° NNW 00:33:25 43° W 00:35:15 30° SW
USA 215 3.3 00:28:07 13° SSE 00:33:51 54° SW 00:40:16 10° WNW
Cosmos 1953 Rocket 3.5 00:33:32 36° S 00:35:18 82° E 00:39:43 10° N
Cosmos 2221 4.1 00:31:47 10° N 00:35:44 32° ENE 00:39:28 11° SE
STARLINK-42 3.0 00:36:27 45° W 00:37:14 72° NNW 00:40:21 10° ENE
BREEZE-M R/B 3.3 00:31:23 10° W 00:37:20 66° N 00:40:30 10° ENE
STARLINK-1029 3.1 00:39:05 50° SE 00:39:05 50° SE 00:42:08 10° ENE
STARLINK-34 2.7 00:40:02 65° S 00:40:10 67° SSE 00:43:13 10° ENE
STARLINK-60 3.0 00:37:22 10° WNW 00:40:34 76° NNE 00:43:46 10° ESE
GP-B 3.3 00:36:18 10° N 00:40:44 66° E 00:42:59 28° SSE
STARLINK-41 3.0 00:40:11 45° W 00:40:57 70° NNW 00:44:01 10° ENE
CZ-4C R/B 4.0 00:38:35 21° SSE 00:41:24 63° ENE 00:45:48 10° N
Cosmos 1315 Rocket 4.2 00:38:57 10° N 00:42:34 34° ENE 00:45:45 13° SE
Cosmos 1842 Rocket 4.5 00:38:27 10° N 00:42:46 45° ENE 00:46:04 16° SE
STARLINK-1272 3.1 00:42:02 43° SW 00:43:05 85° SSE 00:46:39 10° ENE
Cosmos 540 Rocket 3.6 00:41:07 29° SW 00:43:42 66° WNW 00:48:49 10° NNE
STARLINK-62 2.6 00:43:45 65° SSW 00:44:01 72° SSE 00:47:04 10° ENE
Cosmos 2360 Rocket 4.3 00:44:43 10° SE 00:48:11 17° E 00:51:39 10° ENE
STARLINK-1307 3.2 00:46:48 35° WSW 00:48:14 89° SSE 00:51:59 10° ENE
Helios 1B rocket 3.7 00:44:55 10° N 00:48:34 30° WNW 00:50:24 21° WSW
STARLINK-1290 3.2 00:50:11 33° WSW 00:51:46 88° NNW 00:55:30 10° ENE
Cosmos 1980 Rocket 2.4 00:51:50 25° SW 00:55:08 66° WNW 01:00:48 10° NNE
Cosmos 2074 Rocket 4.1 00:51:22 23° S 00:55:30 78° E 01:01:47 10° NNE
Meteor 1-29 4.3 00:54:15 10° N 00:57:11 28° WNW 00:58:11 24° W
STARLINK-1305 4.5 00:57:04 29° S 00:58:09 34° SE 01:01:55 10° ENE
STARLINK-1306 4.4 00:57:24 30° S 00:58:35 37° SE 01:02:29 10° ENE
STARLINK-1317 3.5 00:56:33 25° WSW 00:58:45 78° NNW 01:02:40 10° ENE
Cosmos 1455 3.8 00:56:42 10° NW 00:59:28 20° W 01:00:05 19° WSW
CZ-4B R/B 4.3 00:55:48 10° NNE 01:00:52 47° E 01:04:34 18° SSE
STARLINK-55 3.8 01:00:33 18° W 01:02:41 47° NNW 01:05:48 10° ENE
STARLINK-1274 3.3 01:00:55 26° WSW 01:02:47 73° NNW 01:06:20 10° ENE
STARLINK-1262 4.4 01:01:53 30° S 01:03:08 37° SE 01:06:59 10° ENE
STARLINK-1291 3.5 01:04:16 23° WSW 01:06:29 71° NNW 01:10:13 10° ENE
Meteor 1-11 4.3 01:03:54 25° SSW 01:07:12 71° WNW 01:12:48 10° N
Lacrosse 4 Rocket 3.6 01:06:18 10° W 01:07:20 11° W 01:07:20 11° W
STARLINK-1300 4.2 01:06:40 30° S 01:08:05 40° SE 01:12:00 10° ENE
STARLINK-1264 3.6 01:07:26 21° WSW 01:09:47 69° NNW 01:13:32 10° ENE
ADEOS II 3.5 01:05:17 10° NNE 01:09:59 32° E 01:14:40 10° SSE
Cosmos 2263 Rocket 2.1 01:05:23 10° NNW 01:10:59 72° WSW 01:15:58 13° SSE
STARLINK-1295 4.1 01:11:26 29° SSW 01:13:01 44° SE 01:16:59 10° ENE
STARLINK-1267 3.6 01:10:40 19° WSW 01:13:10 66° NNW 01:16:54 10° ENE
NOSS 2-1 (C) 3.3 01:12:04 32° S 01:13:19 54° SE 01:16:50 10° NE
STARLINK-29 3.1 01:10:09 10° WNW 01:13:21 74° NNE 01:16:33 10° ESE
IRS-1D 4.5 01:08:20 10° NNE 01:13:21 42° E 01:17:31 14° SSE
STARLINK-28 4.2 01:11:33 12° W 01:14:16 40° NNW 01:17:20 10° ENE
UNK 3.7 01:11:41 22° S 01:14:39 72° WSW 01:19:14 10° NNW
SL-4 R/B 2.3 01:10:08 10° WNW 01:14:57 67° SSW 01:19:36 10° SE
AQUA 4.2 01:10:23 10° NNE 01:15:07 60° ESE 01:18:24 19° S
STARLINK-64 3.2 01:14:12 32° SW 01:15:41 69° SSE 01:19:16 10° ENE
USA 229 DEB 3.8 01:09:28 10° NW 01:16:44 75° SW 01:24:20 10° SSE
USA 229 3.8 01:09:35 10° NW 01:16:50 75° SW 01:24:27 10° SSE
NOSS 3-1 (C) 4.1 01:10:08 10° NW 01:17:37 70° SW 01:26:12 10° SSE
STARLINK-1287 4.0 01:16:12 28° SSW 01:17:59 47° SE 01:21:59 10° ENE
NOSS 2-1 (D) 3.1 01:16:50 32° SSW 01:18:12 61° SE 01:21:47 10° NE
NPP 3.7 01:13:39 10° NNE 01:19:05 79° ESE 01:22:54 20° S
ARIANE 5 R/B 4.4 01:15:40 10° NE 01:19:39 23° E 01:23:35 10° SE
STARLINK-1207 3.8 01:17:09 16° W 01:19:57 61° NNW 01:23:41 10° ENE
Cosmos 2184 Rocket 4.0 01:16:27 22° SSW 01:20:39 74° W 01:26:51 10° N
CZ-4C R/B 3.8 01:17:56 10° W 01:22:43 31° NNW 01:28:22 10° NNE
STARLINK-1266 3.8 01:20:25 15° W 01:23:21 59° NNW 01:27:05 10° ENE
BREEZE-M DEB (TANK) 1.4 01:23:13 45° WSW 01:23:44 83° SSE 01:26:32 10° ENE
STARLINK-33 4.2 01:21:41 11° W 01:24:29 38° NNW 01:27:26 10° NE
Cosmos 1892 3.4 01:21:53 17° SSE 01:24:31 47° E 01:28:10 10° NNE
NOSS 3-1 (A) 4.1 01:18:17 10° NW 01:25:48 86° SW 01:34:28 10° SE
STARLINK-1299 3.8 01:24:06 25° SW 01:26:26 62° SE 01:30:38 10° ENE
STARLINK-1284 3.9 01:23:40 14° W 01:26:46 56° NNW 01:30:29 10° ENE
STARLINK-1302 3.8 01:25:46 25° SSW 01:27:54 55° SE 01:31:58 10° ENE
STARLINK-1320 4.3 01:24:54 10° NW 01:27:54 41° NNE 01:30:54 10° E
STARLINK-26 4.4 01:24:41 10° W 01:27:58 40° NNW 01:31:15 10° ENE
STARLINK-1322 4.3 01:25:15 10° NW 01:28:15 41° NNE 01:31:15 10° E
BREEZE-M DEB (TANK) 1.7 01:25:57 10° WNW 01:28:20 56° N 01:30:53 10° E
STARLINK-1324 4.2 01:25:35 10° NW 01:28:34 41° NNE 01:31:34 10° E
STARLINK-1294 4.2 01:25:52 10° NW 01:28:53 42° NNE 01:31:54 10° E
Cosmos 1610 Rocket 4.5 01:24:10 18° S 01:28:55 89° E 01:35:11 10° N
STARLINK-1261 4.2 01:26:15 10° NW 01:29:16 42° NNE 01:32:16 10° E
STARLINK-1325 4.2 01:26:37 10° NW 01:29:37 42° NNE 01:32:36 10° E
STARLINK-1333 4.2 01:26:59 10° NW 01:29:59 42° NNE 01:32:59 10° E
STARLINK-1258 4.0 01:26:59 13° W 01:30:13 54° NNW 01:33:55 10° ENE
STARLINK-1334 4.2 01:27:16 10° NW 01:30:16 42° NNE 01:33:15 10° E
Cosmos 1869 3.1 01:26:28 10° NNW 01:30:20 77° W 01:33:00 19° S
STARLINK-1326 4.2 01:27:35 10° NW 01:30:35 42° NNE 01:33:35 10° E
STARLINK-1323 4.2 01:27:58 10° NW 01:30:59 42° NNE 01:33:58 10° E
STARLINK-1349 4.2 01:28:16 10° NW 01:31:16 43° NNE 01:34:16 10° E
STARLINK-1336 4.2 01:28:35 10° NW 01:31:36 43° NNE 01:34:36 10° E
STARLINK-1331 4.2 01:28:58 10° NW 01:31:59 43° NNE 01:34:59 10° E
STARLINK-1344 4.2 01:29:17 10° NW 01:32:18 43° NNE 01:35:17 10° E
STARLINK-1343 4.2 01:29:39 10° NW 01:32:40 43° NNE 01:35:41 10° E
STARLINK-1273 3.8 01:30:32 24° SW 01:32:51 59° SE 01:36:57 10° ENE
STARLINK-1346 4.2 01:29:55 10° WNW 01:32:58 44° NNE 01:36:01 10° E
STARLINK-1328 4.1 01:30:22 10° NW 01:33:24 43° NNE 01:36:24 10° E
STARLINK-1292 4.0 01:30:17 12° W 01:33:40 53° NNW 01:37:21 10° ENE
STARLINK-1354 4.1 01:30:40 10° NW 01:33:41 44° NNE 01:36:42 10° E
Cosmos 2322 Rocket 2.3 01:29:42 19° SSW 01:33:47 69° ESE 01:39:22 10° NNE
STARLINK-1347 4.1 01:30:57 10° NW 01:33:58 44° NNE 01:36:58 10° E
STARLINK-1357 4.1 01:31:22 10° WNW 01:34:24 44° NNE 01:37:25 10° E
STARLINK-1335 4.1 01:31:39 10° WNW 01:34:41 44° NNE 01:37:42 10° E
STARLINK-1327 4.1 01:32:01 10° NW 01:35:02 44° NNE 01:38:03 10° E
STARLINK-1340 4.1 01:32:19 10° NW 01:35:20 44° NNE 01:38:20 10° E
In-Cosmos 22 Rocket 4.3 01:31:02 15° S 01:35:37 73° E 01:41:06 10° NNE
STARLINK-1356 4.1 01:32:42 10° WNW 01:35:43 45° NNE 01:38:44 10° E
STARLINK-1345 4.1 01:33:00 10° WNW 01:36:02 45° NNE 01:39:02 10° E
STARLINK-1355 4.1 01:33:21 10° WNW 01:36:24 45° NNE 01:39:24 10° E
STARLINK-1321 4.1 01:33:42 10° WNW 01:36:45 45° NNE 01:39:45 10° E
STARLINK-1358 4.1 01:34:05 10° WNW 01:37:08 45° NNE 01:40:09 10° E
STARLINK-1332 4.0 01:34:23 10° WNW 01:37:25 45° NNE 01:40:26 10° E
STARLINK-1348 4.0 01:34:43 10° WNW 01:37:45 46° NNE 01:40:47 10° E
STARLINK-1288 3.7 01:35:19 22° SW 01:37:49 64° SSE 01:41:56 10° ENE
STARLINK-61 3.9 01:35:51 23° SSW 01:37:56 49° SE 01:41:44 10° ENE
STARLINK-1330 4.0 01:35:03 10° WNW 01:38:05 46° NNE 01:41:06 10° E
STARLINK-1363 4.0 01:35:23 10° WNW 01:38:24 46° NNE 01:41:26 10° E
STARLINK-1337 4.0 01:35:45 10° WNW 01:38:47 46° NNE 01:41:49 10° E
STARLINK-1342 4.0 01:36:04 10° WNW 01:39:06 46° NNE 01:42:08 10° E
STARLINK-1268 4.1 01:36:30 10° W 01:39:22 40° NNW 01:42:19 10° NE
STARLINK-1364 4.0 01:36:25 10° WNW 01:39:27 46° NNE 01:42:29 10° E
STARLINK-1376 4.0 01:36:44 10° WNW 01:39:47 47° NNE 01:42:49 10° E
STARLINK-1360 4.0 01:37:05 10° WNW 01:40:08 47° NNE 01:43:10 10° E
STARLINK-1361 4.0 01:37:26 10° WNW 01:40:28 47° NNE 01:43:30 10° E
STARLINK-1289 4.2 01:36:53 10° W 01:40:33 49° NNW 01:44:13 10° ENE
STARLINK-1367 4.0 01:37:41 10° WNW 01:40:45 48° NNE 01:43:50 10° E
Resurs 1-4 Rocket 2.3 01:35:45 10° N 01:40:59 60° WNW 01:44:54 18° SW
STARLINK-1366 4.0 01:38:04 10° WNW 01:41:07 47° NNE 01:44:09 10° E
STARLINK-1301 4.3 01:38:47 10° W 01:42:32 49° NNW 01:46:18 10° ENE
STARLINK-1308 3.6 01:40:08 21° SW 01:42:50 69° SSE 01:46:58 10° ENE
Cosmos 1076 Rocket 3.6 01:39:51 16° S 01:43:15 79° E 01:47:38 10° NNE
STARLINK-1303 4.2 01:40:23 10° W 01:44:02 48° NNW 01:47:42 10° ENE
STARLINK-1316 4.2 01:41:42 10° W 01:44:39 38° NNW 01:47:37 10° NE
Cosmos 1125 Rocket 3.9 01:40:00 10° NW 01:44:53 42° WSW 01:48:54 15° S
Cosmos 2151 4.4 01:41:12 10° SSE 01:45:06 35° E 01:49:03 10° NNE
STARLINK-1257 4.2 01:42:35 10° W 01:45:32 38° NNW 01:48:31 10° NE
STARLINK-1256 4.2 01:43:34 10° W 01:46:30 38° NNW 01:49:28 10° NE
STARLINK-58 3.9 01:44:00 11° W 01:46:55 45° NNW 01:50:00 10° ENE
H-2A R/B 4.0 01:43:24 10° SE 01:47:20 32° ENE 01:51:20 10° N
STARLINK-1213 4.2 01:44:27 10° W 01:47:24 37° NNW 01:50:21 10° NE
STARLINK-1312 4.3 01:43:53 10° W 01:47:33 47° NNW 01:51:13 10° ENE
STARLINK-1263 4.2 01:45:21 10° W 01:48:18 37° NNW 01:51:14 10° NE
STARLINK-1338 4.5 01:44:31 10° WNW 01:48:26 51° NNE 01:52:20 10° E
STARLINK-52 2.8 01:45:29 10° WNW 01:48:41 69° SSW 01:51:52 10° SE
STARLINK-1259 4.3 01:46:18 10° W 01:49:14 37° NNW 01:52:11 10° NE
STARLINK-1265 4.3 01:46:40 10° W 01:49:38 37° NNW 01:52:37 10° NE
STARLINK-1285 4.3 01:47:11 10° W 01:50:06 37° NNW 01:53:04 10° NE
STARLINK-1296 4.3 01:49:00 10° W 01:51:56 36° NNW 01:54:52 10° NE
Cosmos 1408 3.0 01:49:31 13° S 01:52:43 61° E 01:56:21 10° NNE
STARLINK-1304 3.6 01:49:41 17° SW 01:52:46 79° SSE 01:56:55 10° ENE
STARLINK-1260 4.3 01:49:54 10° W 01:52:50 36° NNW 01:55:47 10° NE
STARLINK-1318 4.3 01:50:49 10° W 01:53:45 36° NNW 01:56:41 10° NE
STARLINK-1275 4.3 01:51:45 10° W 01:54:39 35° NNW 01:57:35 10° NE
Cosmos 2154 Rocket 4.1 01:49:51 15° SSW 01:55:00 64° WNW 02:01:12 10° N
STARLINK-1309 4.4 01:52:38 10° W 01:55:33 35° NNW 01:58:28 10° NE
STARLINK-1282 4.4 01:53:32 10° W 01:56:26 35° NNW 01:59:22 10° NE
STARLINK-1371 4.3 01:52:48 10° WNW 01:56:42 54° NNE 02:00:35 10° E
GEOS 3 Rocket 3.7 01:51:39 10° SSE 01:56:45 58° SW 02:01:59 10° NW
STARLINK-48 3.9 01:53:48 11° WSW 01:57:30 61° NNW 02:01:22 10° ENE
STARLINK-1313 4.5 01:54:42 10° W 01:57:35 33° NNW 02:00:30 10° NE
STARLINK-1279 4.5 01:55:39 10° WNW 01:58:32 33° NNW 02:01:25 10° NE
STARLINK-1278 3.7 01:55:21 14° WSW 01:58:56 87° NNW 02:03:13 10° ENE
STARLINK-1298 4.4 01:56:13 10° W 01:59:07 34° NNW 02:02:01 10° NE
Cosmos 1825 3.0 01:55:42 10° SSE 01:59:19 48° E 02:02:57 10° NNE
STARLINK-31 4.5 01:57:45 16° SSW 02:00:00 30° SE 02:03:14 10° ENE
SL-16 R/B 3.2 01:55:29 15° SSW 02:00:01 35° W 02:05:38 10° NNW
STARLINK-1293 4.4 01:57:09 10° W 02:00:04 34° NNW 02:02:59 10° NE
STARLINK-1280 3.7 01:57:08 14° WSW 02:00:47 86° NNW 02:05:04 10° ENE
STARLINK-1341 4.2 01:57:11 10° WNW 02:01:07 56° NNE 02:05:01 10° E
STARLINK-69 4.3 01:59:20 16° SSW 02:01:38 33° SE 02:04:54 10° ENE
SL-08 R/B 3.3 01:57:06 10° SSE 02:01:44 83° ENE 02:06:21 10° NNW
STARLINK-1255 4.4 01:58:59 10° W 02:01:53 34° NNW 02:04:47 10° NE
STARLINK-21 4.4 02:00:55 16° SSW 02:03:16 32° SE 02:06:33 10° ENE
IRS-P3 4.2 01:59:08 10° NNE 02:04:30 81° ESE 02:09:50 10° SSW
STARLINK-1297 4.5 02:01:23 10° W 02:04:49 40° NNW 02:08:16 10° ENE
STARLINK-45 4.2 02:02:35 16° SSW 02:05:02 36° SE 02:08:23 10° ENE
Cosmos 1844 Rocket 3.0 01:59:55 10° NNW 02:05:33 73° ENE 02:11:07 10° SSE
STARLINK-1374 4.2 02:01:39 10° WNW 02:05:37 59° NNE 02:09:34 10° ESE
NOSS 2-1 (E) 3.6 02:04:58 14° WSW 02:07:41 49° NW 02:11:24 10° NNE
STARLINK-76 4.2 02:05:36 15° SSW 02:08:08 35° SE 02:11:29 10° ENE
STARLINK-70 4.1 02:05:59 15° SSW 02:08:35 38° SE 02:12:00 10° ENE
STARLINK-1286 3.7 02:05:37 12° WSW 02:09:26 83° NNW 02:13:37 10° ENE
SL-16 R/B 2.5 02:04:36 14° SW 02:09:26 57° WNW 02:15:04 10° NNE
STARLINK-1339 4.1 02:05:49 10° WNW 02:09:45 61° NNE 02:13:41 10° ESE
STARLINK-23 4.2 02:07:11 15° SSW 02:09:46 36° SE 02:13:08 10° ENE
STARLINK-32 4.1 02:08:37 15° SSW 02:11:13 37° SE 02:14:33 10° ENE
CZ-2D R/B 3.0 02:07:17 10° N 02:11:58 34° WNW 02:16:21 11° SW
STARLINK-1281 3.7 02:08:48 12° WSW 02:12:39 82° NNW 02:16:50 10° ENE
STARLINK-40 4.1 02:10:18 14° SSW 02:13:00 38° SE 02:16:24 10° ENE
Cosmos 2221 3.7 02:09:31 10° NNW 02:13:11 26° W 02:16:16 13° SW
COSMOS 2428 4.5 02:09:33 10° SSE 02:14:11 27° ESE 02:18:50 10° NE
STARLINK-1377 4.0 02:10:21 10° WNW 02:14:20 65° NNE 02:18:19 10° ESE
STARLINK-44 4.0 02:11:49 14° SSW 02:14:34 40° SE 02:17:59 10° ENE
STARLINK-1029 4.2 02:12:04 10° W 02:15:04 39° NNW 02:18:05 10° NE
CZ-4C R/B 4.4 02:11:49 10° SE 02:15:15 42° ENE 02:18:42 10° N
STARLINK-34 4.4 02:13:07 10° W 02:15:58 34° NNW 02:18:49 10° NE
STARLINK-60 4.4 02:14:03 10° W 02:16:20 18° SW 02:18:36 10° S
Cosmos 773 Rocket 4.2 02:11:08 10° SSW 02:16:21 71° ESE 02:21:38 10° NNE
STARLINK-37 3.9 02:13:33 14° SSW 02:16:23 43° SE 02:19:51 10° ENE
STARLINK-1310 3.7 02:13:35 10° WSW 02:17:39 77° NNW 02:21:49 10° ENE
STARLINK-36 4.0 02:14:56 14° SSW 02:17:48 42° SE 02:21:16 10° ENE
FALCON 9 DEB 3.1 02:14:34 10° WNW 02:18:00 64° SSW 02:21:26 10° SE
STARLINK-1353 3.9 02:14:41 10° WNW 02:18:41 68° NNE 02:22:41 10° ESE
Cosmos 1315 Rocket 4.3 02:15:59 10° NW 02:18:55 20° W 02:21:25 12° SW
STARLINK-62 4.4 02:17:00 10° WNW 02:19:48 32° NNW 02:22:37 10° NE
STARLINK-63 3.8 02:18:10 13° SW 02:21:10 46° SE 02:24:39 10° ENE
CBERS-1 4.4 02:16:45 10° N 02:21:44 52° WNW 02:26:39 10° SW
STARLINK-35 3.8 02:19:32 13° SW 02:22:30 45° SE 02:25:57 10° ENE
STARLINK-1319 3.8 02:18:29 10° WSW 02:22:37 73° NNW 02:26:47 10° ENE
STARLINK-1375 3.9 02:19:04 10° WNW 02:23:05 71° NNE 02:27:05 10° ESE
STARLINK-51 3.8 02:21:14 13° SW 02:24:19 47° SE 02:27:48 10° ENE
STARLINK-1028 4.5 02:21:25 11° SSW 02:25:03 39° SE 02:28:55 10° ENE
Cosmos 2366 rocket 4.2 02:19:13 10° S 02:25:27 78° E 02:31:48 10° N
STARLINK-30 3.8 02:22:49 12° SW 02:25:59 49° SE 02:29:30 10° ENE
Cosmos 2278 Rocket 4.5 02:22:15 10° NNW 02:27:13 30° NE 02:32:09 10° ESE
STARLINK-72 3.7 02:24:13 12° SW 02:27:22 49° SE 02:30:50 10° ENE
STARLINK-1350 3.8 02:23:24 10° WNW 02:27:25 75° NNE 02:31:27 10° ESE
STARLINK-1277 3.9 02:23:29 10° WSW 02:27:37 69° NNW 02:31:46 10° ENE
Shenzhou-11 Module 2.7 02:26:47 12° WSW 02:28:31 24° S 02:30:35 10° SE
STARLINK-1021 4.3 02:26:14 11° SSW 02:30:01 42° SE 02:33:58 10° ENE
Cosmos 1933 4.1 02:26:34 10° N 02:30:35 56° ENE 02:34:32 10° SSE
Cosmos 2058 4.0 02:27:00 11° SW 02:30:36 31° WNW 02:34:24 10° N
STARLINK-59 3.5 02:27:25 11° SW 02:30:42 55° SE 02:34:12 10° ENE
Cosmos 2360 Rocket 2.2 02:25:49 10° SSW 02:31:26 82° WNW 02:37:07 10° NNE
STARLINK-1352 3.7 02:27:35 10° WNW 02:31:37 79° NNE 02:35:36 10° ESE
STARLINK-1010 4.3 02:28:17 10° SW 02:32:16 47° SE 02:36:21 10° ENE
STARLINK-56 3.6 02:29:04 11° SW 02:32:28 55° SE 02:36:02 10° ENE
STARLINK-1276 3.9 02:28:30 10° WSW 02:32:38 66° NNW 02:36:46 10° ENE
STARLINK-73 3.6 02:30:38 11° SW 02:34:05 56° SE 02:37:40 10° ENE
Cosmos 1328 Rocket 3.9 02:29:43 10° N 02:34:07 70° E 02:38:28 10° SSE
STARLINK-1019 4.2 02:30:59 10° SW 02:34:57 46° SE 02:38:56 10° ENE
STARLINK-38 3.5 02:32:12 10° SW 02:35:43 58° SSE 02:39:18 10° ENE
STARLINK-1368 3.6 02:32:16 10° WNW 02:36:18 83° NNE 02:40:20 10° ESE
STARLINK-65 3.5 02:33:47 10° SW 02:37:21 60° SE 02:40:57 10° ENE
STARLINK-1305 4.0 02:33:28 10° WSW 02:37:35 63° NNW 02:41:43 10° ENE
STARLINK-68 3.4 02:34:25 10° SW 02:38:02 64° SSE 02:41:40 10° ENE
STARLINK-1306 4.1 02:34:07 10° WSW 02:38:17 61° NNW 02:42:27 10° ENE
STARLINK-53 3.4 02:35:28 10° SW 02:39:03 64° SSE 02:42:40 10° ENE
STARLINK-1012 4.1 02:35:55 10° SW 02:39:55 49° SE 02:43:56 10° ENE
Cosmos 1980 Rocket 4.3 02:36:52 10° WNW 02:40:18 16° NW 02:43:45 10° N
STARLINK-1369 3.6 02:36:43 10° WNW 02:40:45 87° NNE 02:44:47 10° ESE
STARLINK-50 3.6 02:37:35 10° SW 02:41:20 62° SSE 02:45:06 10° ENE
SL-24 DEB 4.3 02:37:15 10° N 02:41:50 64° W 02:46:22 10° SSW
STARLINK-1262 4.1 02:38:31 10° WSW 02:42:37 60° NNW 02:46:44 10° ENE
STARLINK-1372 3.5 02:40:53 10° WNW 02:44:53 88° SSW 02:48:52 10° ESE
Cosmos 2333 Rocket 2.9 02:39:30 10° S 02:44:58 53° ESE 02:50:29 10° NE
STARLINK-71 3.7 02:42:05 10° SW 02:46:05 70° SSE 02:50:06 10° ENE
Meteor 1-28 Rocket 3.5 02:42:41 10° S 02:46:17 45° W 02:49:54 10° NNW
Landsat 5 3.7 02:43:01 10° SSE 02:47:32 89° WSW 02:52:00 10° NNW
STARLINK-1300 4.2 02:43:31 10° W 02:47:36 57° NNW 02:51:42 10° ENE
Cosmos 2219 Rocket 2.9 02:43:40 10° S 02:49:04 53° ESE 02:54:31 10° NE
STARLINK-29 4.3 02:46:50 10° W 02:49:11 19° SW 02:51:31 10° S
Cosmos 1727 Rocket 4.0 02:43:05 10° N 02:49:17 87° W 02:55:28 10° S
STARLINK-1378 3.5 02:45:36 10° WNW 02:49:38 83° SSW 02:53:40 10° ESE
ADEOS II 2.8 02:44:53 10° N 02:49:45 39° WNW 02:54:36 10° SW
STARLINK-1026 3.9 02:45:46 10° SW 02:49:50 58° SE 02:53:55 10° ENE
Cosmos 2322 3.9 02:44:43 10° SSW 02:50:26 81° ESE 02:56:12 10° NNE
